Regional Weather Roundup
Issued by NWS State College, PA

Home | Current Version | Previous Version | Text Only | Print | Product List | Glossary On
Versions: 1 2 3 4 5 6 7 8 9 10 11 12 13 14 15 16 17 18 19 20 21 22 23 24 25 26 27 28 29 30 31 32 33 34 35 36 37 38 39 40 41 42 43 44 45 46 47 48 49 50
000
ASUS41 KCTP 191010
RWRCTP

REGIONAL WEATHER ROUNDUP
NATIONAL WEATHER SERVICE STATE COLLEGE PA
600 AM EDT SAT APR 19 2014

Note: "fair" indicates few or no clouds below 12,000 feet with no
significant weather and/or obstructions to visibility.

* = STATION THAT DOES NOT REPORT PRECIPITATION /E.G. RAIN...SNOW...ETC/
    THUNDER OR FOG.

PAZ002>004-007>009-013>016-020>023-029>032-191100-
WESTERN PENNSYLVANIA

CITY           SKY/WX    TMP DP  RH WIND       PRES   REMARKS
ERIE           CLEAR     36  29  75 NE6       30.35S
MEADVILLE      CLEAR     36  32  85 N3        30.31R
FRANKLIN*      CLEAR     37  32  81 N5        30.32R
NEW CASTLE     FAIR      41  37  85 N6        30.32R
BEAVER COUNTY  NOT AVBL
BUTLER*        MOCLDY    39  36  87 CALM      30.31R
PITTSBURGH INT CLOUDY    46  39  76 N7        30.28R
PITTSBURGH     MOCLDY    47  38  71 N7        30.27R
INDIANA*       MOCLDY    39  37  93 CALM      30.28R
LATROBE        CLEAR     41  37  87 CALM      30.28R
WASHINGTON CO* MOCLDY    45  37  76 N6        30.29R
$$

PAZ004>006-010>012-017>019-024>028-033>037-041-042-045-046-049>053-191100-
CENTRAL PENNSYLVANIA

CITY           SKY/WX    TMP DP  RH WIND       PRES   REMARKS
BRADFORD       CLEAR     34  29  82 CALM      30.27R
DUBOIS         MOCLDY    40  32  73 N3        30.26R
CLEARFIELD     MOCLDY    38  35  89 N3        30.27R
JOHNSTOWN      MOCLDY    42  34  73 NE6       30.24R
ALTOONA        MOCLDY    39  34  82 CALM      30.26R
STATE COLLEGE  CLEAR     41  32  70 CALM      30.26S
WILLIAMSPORT   PTCLDY    36  31  82 CALM      30.28R
SELINSGROVE    MOCLDY    35  33  92 CALM      30.27S
FT INDIANTOWN  NOT AVBL
CAPITAL CITY   MOCLDY    37  33  85 W3        30.26S
HARRISBURG     MOCLDY    41  34  76 N3        30.26R
YORK           MOCLDY    35  33  92 CALM      30.25S
$$

PAZ038>040-043-044-047-048-054-055-060>062-067>071-191100-
EASTERN PENNSYLVANIA

CITY           SKY/WX    TMP DP  RH WIND       PRES   REMARKS
SCRANTON       MOCLDY    35  30  82 S7        30.25R
MOUNT POCONO   MOCLDY    40  33  76 NW14      30.21R
ALLENTOWN      PTCLDY    37  31  78 W3        30.24S
QUAKERTOWN*    MOSUNNY   36  32  87 CALM      30.25R
READING        MOCLDY    40  34  79 CALM      30.24S
LANCASTER      MOCLDY    38  33  82 W5        30.25S
COATESVILLE    PTSUNNY   41  32  70 NW7       30.24S
POTTSTOWN      MOCLDY    37  33  85 CALM      30.25S
BLUE BELL      MOCLDY    39  36  87 CALM      30.23S
DOYLESTOWN     MOCLDY    37  35  92 CALM      30.23S
WILLOW GROVE   NOT AVBL
NORTH PHILA    MOCLDY    40  34  79 CALM      30.26S
PHILADELPHIA   MOCLDY    43  37  79 SW3       30.26R
$$



USA.gov is the U.S. government's official web portal to all federal, state and local government web resources and services.